Location: Newark
(58.8333°N, 23.5833°E)
Time: 16:46:06
(UTC+00:00)

Altair - All Passes

Search period start: 13 November 2019 00:00
Search period end: 23 November 2019 00:00
Orbit: 1502 x 1682 km, 47.2° (Epoch: 12 November)

Date Brightness Start Highest point End Pass type
(mag) Time Alt. Az. Time Alt. Az. Time Alt. Az.
13 Nov - 02:34:15 10° S 02:40:41 22° SE 02:47:12 10° E visible
13 Nov - 04:35:08 10° SW 04:43:18 38° SSE 04:51:40 10° ESE visible
13 Nov - 06:38:06 10° WSW 06:46:28 40° S 06:55:04 10° SE daylight
13 Nov - 08:42:02 10° W 08:49:21 27° SSW 08:56:51 10° SSE daylight
14 Nov - 02:09:33 10° S 02:15:43 20° SE 02:21:56 10° E visible
14 Nov - 04:10:10 10° SW 04:18:16 37° SSE 04:26:32 10° E visible
14 Nov - 06:13:02 10° WSW 06:21:24 40° S 06:30:01 10° ESE daylight
14 Nov - 08:16:54 10° W 08:24:20 28° SSW 08:31:58 10° SSE daylight
14 Nov - 10:24:31 10° WSW 10:26:21 11° SW 10:28:10 10° SW daylight
15 Nov - 01:44:52 10° S 01:50:44 19° SE 01:56:40 10° E visible
15 Nov - 03:45:12 10° SW 03:53:13 36° SSE 04:01:24 10° E visible
15 Nov - 05:47:58 10° WSW 05:56:21 41° S 06:04:57 10° ESE daylight
15 Nov - 07:51:46 10° W 07:59:18 29° SSW 08:07:04 10° SSE daylight
15 Nov - 09:58:26 10° WSW 10:01:24 12° SW 10:04:23 10° SSW daylight
16 Nov - 01:20:14 10° S 01:25:47 18° SE 01:31:22 10° E visible
16 Nov - 03:20:14 10° SW 03:28:11 35° SSE 03:36:17 10° E visible
16 Nov - 05:22:55 10° WSW 05:31:17 41° S 05:39:52 10° ESE visible
16 Nov - 07:26:38 10° W 07:34:17 30° SSW 07:42:08 10° SSE daylight
16 Nov - 09:32:44 10° WSW 09:36:27 13° SW 09:40:13 10° SSW daylight
17 Nov - 00:55:39 10° S 01:00:49 17° SE 01:06:01 10° E visible
17 Nov - 02:55:18 10° SW 03:03:10 34° SSE 03:11:09 10° E visible
17 Nov - 04:57:52 10° WSW 05:06:14 41° S 05:14:47 10° ESE visible
17 Nov - 07:01:31 10° W 07:09:15 31° SSW 07:17:12 10° SSE daylight
17 Nov - 09:07:13 10° WSW 09:11:30 14° SW 09:15:52 10° SSW daylight
18 Nov - 00:31:07 10° SSE 00:35:52 15° SE 00:40:38 10° ESE visible
18 Nov - 02:30:22 10° SW 02:38:08 32° SSE 02:46:01 10° E visible
18 Nov - 04:32:49 10° WSW 04:41:10 41° S 04:49:42 10° ESE visible
18 Nov - 06:36:25 10° W 06:44:14 32° SSW 06:52:14 10° SSE daylight
18 Nov - 08:41:46 10° WSW 08:46:32 15° SW 08:51:24 10° SSW daylight
19 Nov - 00:06:40 10° SSE 00:10:55 14° SE 00:15:11 10° ESE visible
19 Nov - 02:05:26 10° SSW 02:13:07 31° SSE 02:20:52 10° E visible
19 Nov - 04:07:47 10° WSW 04:16:07 41° S 04:24:37 10° ESE visible
19 Nov - 06:11:19 10° W 06:19:12 33° SSW 06:27:16 10° SE daylight
19 Nov - 08:16:24 10° W 08:21:35 16° SW 08:26:51 10° S daylight
19 Nov - 23:42:21 10° SSE 23:45:59 13° SE 23:49:37 10° ESE visible
20 Nov - 01:40:32 10° SSW 01:48:06 30° SSE 01:55:43 10° E visible
20 Nov - 03:42:44 10° WSW 03:51:04 41° S 03:59:32 10° ESE visible
20 Nov - 05:46:13 10° W 05:54:10 34° SSW 06:02:17 10° SE daylight
20 Nov - 07:51:04 10° W 07:56:36 18° SW 08:02:15 10° S daylight
20 Nov - 23:18:12 10° SSE 23:21:03 12° SE 23:23:55 10° ESE visible
21 Nov - 01:15:39 10° SSW 01:23:05 29° SSE 01:30:34 10° E visible
21 Nov - 03:17:42 10° WSW 03:26:01 41° S 03:34:27 10° ESE visible
21 Nov - 05:21:07 10° W 05:29:08 35° SSW 05:37:18 10° SE visible
21 Nov - 07:25:48 10° W 07:31:38 19° SW 07:37:35 10° S daylight
21 Nov - 22:54:28 10° SE 22:56:08 11° SE 22:57:47 10° ESE visible
22 Nov - 00:50:47 10° SSW 00:58:05 28° SSE 01:05:25 10° E visible
22 Nov - 02:52:41 10° WSW 03:00:58 40° S 03:09:21 10° ESE visible
22 Nov - 04:56:02 10° W 05:04:05 36° SSW 05:12:19 10° SE visible
22 Nov - 07:00:33 10° W 07:06:39 20° SW 07:12:53 10° S daylight
